Simultaneous Nadir Overpasses (SNOs) Predictions

Prediction of SNOs between GOES-17 and NOAA-19 Satellite Orbit:

Table of predicted SNOs for the next 14.0 days since TLE Epoch: 3/7/2025
Index Date Time (GOES-17) GOES-17 Lat,Lon NOAA-19 Lat,Lon Distance(km) Time Diff (sec)
1 03/08/2025 04:22:26 0.00,-104.39 0.93,-100.23 474.14 80
2 03/09/2025 16:53:48 -0.00,-104.41 0.79,-107.77 383.48 80
3 03/10/2025 16:41:14 -0.00,-104.41 0.07,-104.72 35.33 80
4 03/11/2025 16:26:01 -0.01,-104.41 -0.66,-101.68 312.96 80
5 03/14/2025 04:44:45 0.01,-104.40 -0.40,-106.14 199.18 80
6 03/15/2025 04:34:52 0.01,-104.40 0.33,-103.10 149.51 80
7 03/16/2025 04:22:17 0.01,-104.41 1.00,-100.04 498.16 80
8 03/17/2025 16:53:38 -0.01,-104.44 0.72,-107.57 357.90 80
9 03/18/2025 16:41:03 -0.01,-104.44 0.04,-104.52 9.73 80
10 03/19/2025 16:25:50 -0.01,-104.44 -0.71,-101.47 339.29 80
